SL-8 R/B

Satellite information

Favourite Embed

Satellite Type and Status

ROCKET BODYIN ORBIT

Key statistics

Satellite SL-8 R/B at a glance.

Uptime

8442

Days in orbit

Revolutions

≈ 13.8

Per day

Orbit

LEO

Low Earth Orbit

Inclination

82.9

Latest

Satellite identification and parameters

Extended collection of information and parameters for SL-8 R/B.

Object identification

Identified? True

Debris? False

Object name: SL-8 R/B

International designator: 2002-026B

Object number (NORAD): 27437

Object ID (CCSDS): 27437

Country: COMMONWEALTH OF INDEPENDENT STATES (CIS)

Current information (Y/N): Y

RCS size: LARGE

Orbital parameters

Period: 104.584 minutes

Inclination: 82.9491 deg

SMA: 7353.086 km

Apoapsis: 1008.105 km

Periapsis: 941.797 km

RAAN: 45.6312 deg

Eccentricy: 0.0045089

Argument of periapsis: 69.7501 deg

Mean anomaly: 290.8495 deg

Mean motion: 13.76887012 rev/day

Mean motion (dot): 0.00000031 rev/day2

B* drag term: 0.000015073 1/REarth

Two-line elements (TLE)

Creation date: July 7, 2025, 10:46 p.m.

Reference frame: TEME

Reference center: EARTH

Epoch: July 7, 2025, 9:10 p.m. UTC

TLE line 0: 0 SL-8 R/B

TLE line 1: 1 27437U 02026B 25188.88256117 .00000031 00000-0 15073-4 0 9999

TLE line 2: 2 27437 82.9491 45.6312 0045089 69.7501 290.8495 13.76887012161258

Live tracking on map

Real-time ground track for satellite SL-8 R/B.

In-orbit conjunctions

A list of the most updated potential collisions computed for object SL-8 R/B.

Target Orbit TCA Probability of collision Miss distance Type
FENGYUN 1C DEB SSO 2024-09-22 07:43:36 0.001043758 80.0 (m) DEBRIS
DELTA 1 DEB SSO 2024-06-30 06:37:47 0.0004663971 62.0 (m) DEBRIS

Associated space launch

Navigation satellite providing location information for the Tsiklon-B navigation system

SL-8 R/B was lifted into orbit during the mission ‘Kosmos-3M | Parus 93’, on board a Kosmos-3M space rocket.

The launch took place on May 28, 2002, 6:14 p.m. from 132/1 (132L).

For more information about the launch, click the button.

Launch to space Kosmos-3M | Parus 93
Kosmos-3M | Parus 93

Agency: N/A

Status: Launch Successful

Launch date: May 28, 2002, 6:14 p.m. UTC

Rocket: Kosmos-3M

Launch pad: 132/1 (132L)

Location: Plesetsk Cosmodrome, Russian Federation

...

Latest news about this satellite

There are no fresh news available about this satellite. Check back as we update our databases every day.


Newsletter sign-up

Weekly statistics, charts and insights to help you stay on top of the space industry.